Regional Weather Roundup
Issued by NWS San Diego, CA

Home | Current Version | Previous Version | Text Only | Print | Product List | Glossary On
Versions: 1 2 3 4 5 6 7 8 9 10 11 12 13 14 15 16 17 18 19 20 21 22 23 24 25 26 27 28 29 30 31 32 33 34 35 36 37 38 39 40 41 42 43 44 45 46 47 48 49 50
000
ASUS46 KSGX 200910
RWRSGX

SAN DIEGO HOURLY WEATHER ROUNDUP
NATIONAL WEATHER SERVICE SAN DIEGO CA
200 AM PDT WED AUG 20 2014

NOTE: "FAIR" INDICATES FEW OR NO CLOUDS BELOW 12,000 FEET WITH NO
SIGNIFICANT WEATHER AND/OR OBSTRUCTIONS TO VISIBILITY.

CAZ042-043-060-061-PZZ750-775-201000-

GREATER SAN DIEGO AREA

CITY           SKY/WX    TMP DP  RH WIND       PRES   REMARKS
LINDBERGH FLD  CLOUDY    69  59  70 CALM      29.91S
POINT LOMA       N/A     67  60  77 W3          N/A
NATIONAL CITY    N/A     69  63  80 CALM      29.91S
CHULA VISTA      N/A     69  63  83 CALM      29.83S
IMPERIAL BEACH CLOUDY    68  61  78 CALM      29.90S
BROWN FIELD    CLOUDY    67  60  78 CALM      29.90S
MIRAMAR MCAS   CLOUDY    67  58  72 CALM      29.90F
MONTGOMERY FLD CLOUDY    67  59  75 CALM      29.91S

$$

NORTH SAN DIEGO COUNTY

CITY           SKY/WX    TMP DP  RH WIND       PRES   REMARKS
CAMP PENDLETON CLOUDY    67  62  84 CALM      29.89F
OCEANSIDE AP   CLOUDY    70  59  68 S6        29.88F
CARLSBAD       CLOUDY    68  59  73 S3        29.89F
DEL MAR          N/A     67  62  84 CALM      29.91F
LA JOLLA SCRIP   N/A     67  62  85 SE1       29.87
FALLBROOK        N/A     66  64  94 CALM      29.89F
ESCONDIDO        N/A     66  61  83 CALM      29.91S
SAN MARCOS       N/A     66  60  83 CALM      29.87F
POWAY            N/A     66  60  80 CALM      29.90F
R. PENASQUITOS   N/A     67  60  80 CALM      29.89F

$$

EAST SAN DIEGO COUNTY

CITY           SKY/WX    TMP DP  RH WIND       PRES   REMARKS
RAMONA         CLOUDY    62  58  86 CALM      29.92S
SANTEE LAKES     N/A     67  61  81 CALM      29.90F
GILLESPIE FLD  CLOUDY    66  59  77 CALM      29.92S
LA MESA          N/A     66  61  84 CALM      29.84S
JAMUL            N/A     64  60  87 CALM      29.88S
DESCANSO N       N/A     60  38  42 E1        29.74F
MT. LAGUNA OBS   N/A     58  17  20 SW3       29.66F
CAMPO            N/A     59  49  69 NE3       29.91F

$$

ORANGE COUNTY AND THE LOS ANGELES BASIN

CITY           SKY/WX    TMP DP  RH WIND       PRES   REMARKS
JOHN WAYNE AP  MOCLDY    71  59  65 E5        29.89R
LAGUNA BEACH     N/A     69  62  78 CALM      29.84S
LAKE FOREST FR   N/A     63  57  79 CALM      29.79S
SANTA ANA        N/A     68  62  80 CALM      29.84S
HUNTINGTON BCH   N/A     68  62  79 CALM      29.90S
LOS ALAMITOS   CLOUDY    69  60  73 E6        29.88S
FULLERTON      CLOUDY    69  59  70 S7        29.88S
LONG BEACH     CLOUDY    69  59  70 SE8       29.88S
L.A. AP        CLOUDY    69  61  75 CALM      29.89S
L.A. DOWNTOWN  CLOUDY    71  59  65 VRB5      29.87F

$$

THE INLAND EMPIRE

CITY           SKY/WX    TMP DP  RH WIND       PRES   REMARKS
CORONA         MOCLDY    61  57  86 CALM        N/A
CHINO          CLEAR     62  58  86 MISG      29.91S
ONTARIO        PTCLDY    65  59  81 SW6       29.89F
RIVERSIDE AP   CLEAR     65  59  81 SW3       29.90F
RIV CYN CREST    N/A     65  65 100 CALM      29.87S
MORENO VALLEY    N/A     63  62  96 SE2         N/A
MARCH ARB      MOCLDY    64  59  84 SE6       29.91F
HORSETHIEF CYN   N/A     62  54  75 CALM      29.90S
PERRIS           N/A     62  59  91 S3        29.89S
MENIFEE          N/A     64  61  91 CALM      29.96R
HEMET EAST       N/A     60  54  81 CALM      29.88R
FRENCH VALLEY  CLOUDY    63  59  88 CALM      29.91F
TEMECULA         N/A     65  61  88 CALM      29.88R

$$

SAN BERNARDINO AND RIVERSIDE COUNTY MOUNTAINS

CITY           SKY/WX    TMP DP  RH WIND       PRES   REMARKS
BIG BEAR AP    PTCLDY    54  21  28 W3        30.12S
BIG BEAR SHEA    N/A     55  22  28 W1        29.79R
ANGELUS OAKS     N/A     56  29  35 CALM      29.72S
PINE COVE        N/A     58  15  18 CALM      29.73R

$$

SOUTHERN DESERT INCLUDING THE COACHELLA VALLEY

CITY           SKY/WX    TMP DP  RH WIND       PRES   REMARKS
PALM SPRINGS   PTCLDY    81  50  33 NE3       29.78S
THOUSAND PALMS   N/A     81  47  29 NW9       29.73F
PALM DESERT      N/A     80  53  38 CALM        N/A
THERMAL        MOCLDY    85  46  25 NW12      29.71F
BLYTHE         PTCLDY    83  52  34 S10       29.75S
IMPERIAL AP    MOCLDY    86  30  13 NW13      29.72S
EL CENTRO NAS  MOCLDY    87  26  11 W17       29.73R
YUMA AZ        CLEAR     85  67  54 S8        29.76S

$$

UPPER DESERT

CITY           SKY/WX    TMP DP  RH WIND       PRES   REMARKS
VICTORVILLE AP CLEAR     64  52  63 S10       29.92F
HESPERIA         N/A     68  47  48 W6        29.88S
APPLE VALLEY     N/A     65  50  56 NW3       30.00F
GRAY BUTTE AP  FAIR      59  46  61 S6        29.91F
PALMDALE       CLEAR     65  46  50 S14       29.90S
LANCASTER      CLEAR     66  42  41 S8        29.89S
EDWARDS AFB    CLEAR     65  47  52 SW10      29.86S
DAGGETT        NOT AVBL
29 PALMS N     MOCLDY    79  43  27 N5        29.91S
NEEDLES        CLEAR     84  60  44 SE6       29.77S

$$

REGIONAL REPORTS

CITY           SKY/WX    TMP DP  RH WIND       PRES   REMARKS
SANTA BARBARA  CLOUDY    65  60  84 SE6       29.87F
SANDBERG       CLEAR     59  49  69 SW7       30.00F
MT. WILSON       N/A     54  27  35 MISG        N/A
LAS VEGAS NV   PTCLDY    79  54  41 VRB3      29.81R
PHOENIX AZ     PTCLDY    77  67  71 E7        29.84S
TIJUANA        CLOUDY    66  57  72 CALM      29.93R
ENSENADA NW      N/A     67  32  26 NW6       29.88S

$$

OFFSHORE ISLANDS

CITY           SKY/WX    TMP DP  RH WIND       PRES   REMARKS
CATALINA ARPT  CLOUDY    61  58  90 CALM      29.91F
SAN NICOLAS IS CLOUDY   N/A N/A N/A W8        29.89S

$$

MARINE AND OFFSHORE BUOY REPORTS

STATION/POSITION SKY/WX   TEMP    WIND        PRES    SWELL
                          AIR SEA DIR/SP/G            HT/PER/DIR
                          (F)     (DEG/KT/KT) (MB)    (FT/S/D)
TANNER BANKS               65 68  290/  8/ 10 1012.5F   5/310/ 9
S CLEMENTE BASIN           67 70  250/  4/  6 1012.1F   3/210/15
SAN NICOLAS IS.               65                N/A     2/190/14
SO. S. ROSA ISLA           63 66  330/  6/  8 1011.8F   3/ 8
W. S. BARBARA CH           61 59  330/  8/  8 1011.3S   3/210/15
M. S. BARBARA CH           62 64  180/  4/  6 1011.8F
S. MONICA BASIN            68 71   70/  4/  6 1011.7F   3/220/15
S PEDRO CHANNEL               68                N/A     2/180/14
DANA POINT                    71                N/A     2/190/14
CMP PENDLETON NS              72                N/A     2/230/15
OCEANSIDE OFFSHR              72                N/A     2/200/14
TORREY PINES OTR              73                N/A     2/220/15
LA JOLLA 1                 68 72  190/  2/  3 1012.4R
MISSION BAY BUOY              69                N/A     2/220/14
SAN DIEGO BAY                 75              1012.9R
POINT LOMA SOUTH              73                N/A     2/210/14

$$



USA.gov is the U.S. government's official web portal to all federal, state and local government web resources and services.